Weather History for Orange, MA

Change the Weather History Date:

Saturday, April 27, 2013

  Actual Average Record
Temperature  
Mean Temperature 48 °F -  
Max Temperature 66 °F 60 °F 75 °F (2011)
Min Temperature 30 °F 33 °F 24 °F (2002)
Degree Days  
Heating Degree Days 17    
Moisture  
Dew Point 31 °F    
Average Humidity 55    
Maximum Humidity 96    
Minimum Humidity 21    
Precipitation  
Precipitation 0.00 in - - ()
Sea Level Pressure  
Sea Level Pressure 30.36 in    
Wind  
Wind Speed 1 mph (SSW)    
Max Wind Speed 12 mph    
Max Gust Speed 17 mph    
Visibility 10 miles    
Events      
Averages and records for this station are not official NWS values.
T = Trace of Precipitation, MM = Missing Value Source: NWS Daily Summary

Daily Weather History Graph

Daily Weather History Graph

Search for Another Location

Airport:

Trip Planner

Search our weather history database for the weather conditions in past years. The results will help you decide how hot, cold, wet, or windy it might be!

Date:

Astronomy

Apr. 27, 2013 Rise Set
Actual Time 5:49 AM EDT 7:44 PM EDT
Civil Twilight 5:18 AM EDT 8:15 PM EDT
Nautical Twilight 4:41 AM EDT 8:52 PM EDT
Astronomical Twilight 4:01 AM EDT 9:33 PM EDT
Moon 10:13 PM EDT (4/27) 7:03 AM EDT (4/27)
Length of Visible Light 14h 56m
Length of Day
13h 55m
Waning Gibbous, 95% of the Moon is Illuminated
Apr 27
Waning Gibbous
May 2
Last Quarter
May 9
New
May 18
First Quarter
May 25
Full

Hourly Weather History & Observations

Time (EDT) Temp. Dew Point Humidity Pressure Visibility Wind Dir Wind Speed Gust Speed Precip Events Conditions
12:52 AM 37.9 °F 32.0 °F 79% 30.43 in 10.0 mi Calm Calm - N/A   Clear
1:52 AM 35.1 °F 30.9 °F 85% 30.42 in 10.0 mi Calm Calm - N/A   Clear
2:52 AM 33.1 °F 30.0 °F 89% 30.42 in 10.0 mi Calm Calm - N/A   Clear
3:52 AM 33.1 °F 30.9 °F 92% 30.41 in 10.0 mi Calm Calm - N/A   Clear
4:52 AM 30.9 °F 28.9 °F 92% 30.41 in 10.0 mi Calm Calm - N/A   Clear
5:52 AM 30.0 °F 28.9 °F 96% 30.42 in 8.0 mi Calm Calm - N/A   Clear
6:52 AM 34.0 °F 30.9 °F 89% 30.43 in 10.0 mi Calm Calm - N/A   Clear
7:52 AM 39.9 °F 34.0 °F 79% 30.43 in 10.0 mi Calm Calm - N/A   Clear
8:52 AM 48.0 °F 35.1 °F 61% 30.41 in 10.0 mi Calm Calm - N/A   Clear
9:52 AM 55.9 °F 33.1 °F 42% 30.40 in 10.0 mi Calm Calm - N/A   Clear
10:52 AM 57.9 °F 30.0 °F 35% 30.40 in 10.0 mi Variable 3.5 mph - N/A   Clear
11:52 AM 57.9 °F 30.9 °F 36% 30.40 in 10.0 mi West 4.6 mph - N/A   Clear
12:52 PM 60.1 °F 30.0 °F 32% 30.37 in 10.0 mi Calm Calm - N/A   Clear
1:52 PM 62.1 °F 28.9 °F 29% 30.34 in 10.0 mi Variable 6.9 mph - N/A   Clear
2:52 PM 64.9 °F 27.0 °F 24% 30.32 in 10.0 mi WSW 8.1 mph - N/A   Clear
3:52 PM 64.9 °F 26.1 °F 23% 30.29 in 10.0 mi Variable 3.5 mph - N/A   Clear
4:52 PM 66.0 °F 25.0 °F 21% 30.28 in 10.0 mi Calm Calm - N/A   Partly Cloudy
5:52 PM 64.0 °F 28.0 °F 26% 30.28 in 10.0 mi South 5.8 mph - N/A   Overcast
6:52 PM 62.1 °F 30.0 °F 30% 30.27 in 10.0 mi SSW 5.8 mph - N/A   Mostly Cloudy
7:52 PM 57.9 °F 35.1 °F 42% 30.28 in 10.0 mi Calm Calm - N/A   Overcast
8:52 PM 55.9 °F 35.1 °F 45% 30.28 in 10.0 mi Calm Calm - N/A   Overcast
9:52 PM 55.9 °F 36.0 °F 47% 30.32 in 10.0 mi SSE 11.5 mph 17.3 mph N/A   Overcast
10:52 PM 53.1 °F 37.0 °F 55% 30.32 in 10.0 mi South 3.5 mph - N/A   Mostly Cloudy
11:52 PM 46.9 °F 37.0 °F 68% 30.32 in 10.0 mi Calm Calm - N/A   Clear